Wahoo, NE

12:10 PM CDT on May 24, 2017 (GMT -0500)
Wahoo Municipal

Weather History for KAHQ - March, 2014

Change the Weather History Date:

Monday, March 3, 2014

  Actual Average Record
Temperature  
Mean Temperature 6 °F -  
Max Temperature 20 °F 45 °F 79 °F (1983)
Min Temperature -7 °F 25 °F -7 °F (2014)
Degree Days  
Heating Degree Days 58    
Moisture  
Dew Point -6 °F    
Average Humidity 53    
Maximum Humidity 72    
Minimum Humidity 34    
Precipitation  
Precipitation 0.00 in - - ()
Sea Level Pressure  
Sea Level Pressure 30.36 in    
Wind  
Wind Speed 8 mph (South)    
Max Wind Speed 22 mph    
Max Gust Speed 28 mph    
Visibility 10 miles    
Events      
Averages and records for this station are not official NWS values.
T = Trace of Precipitation, MM = Missing Value Source: NWS Daily Summary

Daily Weather History Graph

Daily Weather History Graph

Search for Another Location

Airport or City:

Trip Planner

Search our weather history database for the weather conditions in past years. The results will help you decide how hot, cold, wet, or windy it might be!

Date:

Astronomy

Mar. 03, 2014 Rise Set
Actual Time 6:57 AM CST 6:19 PM CST
Civil Twilight 6:29 AM CST 6:47 PM CST
Nautical Twilight 5:58 AM CST 7:19 PM CST
Astronomical Twilight 5:26 AM CST 7:51 PM CST
Moon 8:04 AM CST (3/3) 9:26 PM CST (3/3)
Length of Visible Light 12h 17m
Length of Day
11h 22m
Waxing Crescent, 8% of the Moon is Illuminated
Mar 3
Waxing Crescent
Mar 8
First Quarter
Mar 16
Full
Mar 23
Last Quarter
Mar 30
New

Hourly Weather History & Observations

Time (CST) Temp. Windchill Dew Point Humidity Pressure Visibility Wind Dir Wind Speed Gust Speed Precip Events Conditions
12:00 AM -3.3 °F -15.4 °F -12.5 °F 65% 30.56 in 10.0 mi WNW 5.8 mph - N/A   Clear
12:15 AM -3.8 °F -16.1 °F -12.8 °F 65% 30.57 in 10.0 mi WNW 5.8 mph - N/A   Clear
12:35 AM -4.2 °F -14.8 °F -13.0 °F 66% 30.56 in 10.0 mi WNW 4.6 mph - N/A   Clear
12:55 AM -4.2 °F -16.5 °F -13.7 °F 64% 30.57 in 10.0 mi NW 5.8 mph - N/A   Clear
1:15 AM -4.7 °F -17.2 °F -14.1 °F 64% 30.56 in 10.0 mi NW 5.8 mph - N/A   Clear
1:35 AM -5.1 °F -20.4 °F -14.1 °F 65% 30.56 in 10.0 mi NW 8.1 mph - N/A   Clear
1:55 AM -4.9 °F -18.8 °F -14.1 °F 65% 30.56 in 10.0 mi NW 6.9 mph - N/A   Clear
2:15 AM -4.7 °F -19.9 °F -14.1 °F 64% 30.56 in 10.0 mi NW 8.1 mph - N/A   Clear
2:35 AM -5.3 °F -17.8 °F -14.1 °F 66% 30.56 in 10.0 mi NNW 5.8 mph - N/A   Clear
2:55 AM -5.8 °F -14.5 °F -14.3 °F 67% 30.55 in 10.0 mi NNW 3.5 mph - N/A   Clear
3:15 AM -6.2 °F -17.1 °F -14.3 °F 68% 30.53 in 10.0 mi NW 4.6 mph - N/A   Clear
3:35 AM -5.8 °F -16.7 °F -14.3 °F 67% 30.51 in 10.0 mi NW 4.6 mph - N/A   Clear
3:55 AM -6.0 °F -14.7 °F -14.4 °F 67% 30.50 in 10.0 mi NW 3.5 mph - N/A   Clear
4:15 AM -5.8 °F -16.7 °F -14.6 °F 66% 30.50 in 10.0 mi NNW 4.6 mph - N/A   Clear
4:35 AM -6.3 °F -15.1 °F -14.8 °F 67% 30.50 in 10.0 mi NNW 3.5 mph - N/A   Clear
4:55 AM -6.7 °F -15.5 °F -14.8 °F 68% 30.50 in 10.0 mi NNW 3.5 mph - N/A   Clear
5:15 AM -6.7 °F - -14.4 °F 69% 30.49 in 10.0 mi Calm Calm - N/A   Clear
5:35 AM -7.1 °F - -14.8 °F 69% 30.48 in 10.0 mi Calm Calm - N/A   Clear
5:55 AM -7.8 °F - -14.8 °F 71% 30.48 in 10.0 mi Calm Calm - N/A   Clear
6:15 AM -7.6 °F - -14.8 °F 71% 30.48 in 10.0 mi Calm Calm - N/A   Clear
6:35 AM -7.2 °F - -14.3 °F 71% 30.48 in 10.0 mi Calm Calm - N/A   Clear
6:55 AM -7.1 °F - -14.6 °F 70% 30.48 in 10.0 mi Calm Calm - N/A   Clear
7:15 AM -6.7 °F - -13.7 °F 72% 30.48 in 10.0 mi Calm Calm - N/A   Clear
7:35 AM -4.9 °F - -12.3 °F 71% 30.47 in 10.0 mi Calm Calm - N/A   Clear
7:55 AM -3.6 °F - -11.9 °F 68% 30.48 in 10.0 mi Calm Calm - N/A   Clear
8:15 AM -2.2 °F - -12.1 °F 63% 30.48 in 10.0 mi Calm Calm - N/A   Clear
8:35 AM -0.9 °F -8.9 °F -10.7 °F 63% 30.48 in 10.0 mi South 3.5 mph - N/A   Clear
8:55 AM 0.7 °F -9.1 °F -10.3 °F 60% 30.49 in 10.0 mi South 4.6 mph - N/A   Clear
9:15 AM 2.7 °F -12.0 °F -9.9 °F 56% 30.47 in 10.0 mi SSE 9.2 mph - N/A   Clear
9:35 AM 3.9 °F -10.4 °F -8.9 °F 55% 30.47 in 10.0 mi SSE 9.2 mph - N/A   Clear
9:55 AM 5.9 °F -9.7 °F -6.9 °F 56% 30.46 in 10.0 mi SSE 11.5 mph - N/A   Clear
10:15 AM 7.2 °F -7.3 °F -6.9 °F 53% 30.46 in 10.0 mi SSE 10.4 mph - N/A   Clear
10:35 AM 9.5 °F -5.9 °F -4.7 °F 53% 30.44 in 10.0 mi South 12.7 mph 17.3 mph N/A   Clear
10:55 AM 10.0 °F -5.9 °F -5.1 °F 51% 30.43 in 10.0 mi SSE 13.8 mph - N/A   Clear
11:15 AM 11.1 °F -4.5 °F -5.6 °F 47% 30.42 in 10.0 mi SSE 13.8 mph - N/A   Clear
11:35 AM 12.6 °F -3.8 °F -5.8 °F 44% 30.41 in 10.0 mi South 16.1 mph - N/A   Clear
11:55 AM 13.1 °F -3.1 °F -6.0 °F 42% 30.40 in 10.0 mi South 16.1 mph - N/A   Clear
12:15 PM 13.8 °F -3.2 °F -6.5 °F 40% 30.39 in 10.0 mi South 18.4 mph - N/A   Clear
12:35 PM 16.2 °F 0.8 °F -6.7 °F 36% 30.37 in 10.0 mi South 16.1 mph 21.9 mph N/A   Clear
12:55 PM 17.4 °F 1.9 °F -5.6 °F 36% 30.35 in 10.0 mi South 17.3 mph 24.2 mph N/A   Clear
1:15 PM 17.1 °F -0.3 °F -5.8 °F 36% 30.34 in 10.0 mi South 21.9 mph 25.3 mph N/A   Clear
1:35 PM 16.7 °F 0.5 °F -6.3 °F 36% 30.33 in 10.0 mi South 18.4 mph - N/A   Clear
1:55 PM 18.1 °F 2.9 °F -4.4 °F 37% 30.31 in 10.0 mi South 17.3 mph - N/A   Clear
2:15 PM 17.6 °F 2.2 °F -6.5 °F 34% 30.28 in 10.0 mi South 17.3 mph 25.3 mph N/A   Clear
2:35 PM 19.4 °F 3.6 °F -5.1 °F 34% 30.27 in 10.0 mi South 19.6 mph 24.2 mph N/A   Clear
2:55 PM 18.5 °F 2.0 °F -5.8 °F 34% 30.26 in 10.0 mi South 20.7 mph 24.2 mph N/A   Scattered Clouds
3:15 PM 19.2 °F 3.0 °F -5.4 °F 34% 30.24 in 10.0 mi South 20.7 mph 26.5 mph N/A   Clear
3:35 PM 19.2 °F 3.4 °F -4.4 °F 35% 30.22 in 10.0 mi South 19.6 mph 23.0 mph N/A   Mostly Cloudy
3:55 PM 18.5 °F 2.0 °F -3.1 °F 39% 30.21 in 10.0 mi SSE 20.7 mph - N/A   Mostly Cloudy
4:15 PM 18.5 °F 2.0 °F -2.0 °F 41% 30.21 in 10.0 mi South 20.7 mph 26.5 mph N/A   Overcast
4:35 PM 19.2 °F 4.3 °F -0.8 °F 42% 30.19 in 10.0 mi South 17.3 mph - N/A   Scattered Clouds
4:55 PM 19.8 °F 4.1 °F -0.8 °F 41% 30.19 in 10.0 mi South 19.6 mph - N/A   Scattered Clouds
5:15 PM 19.4 °F 4.1 °F -0.4 °F 42% 30.17 in 10.0 mi South 18.4 mph 27.6 mph N/A   Mostly Cloudy
5:35 PM 19.9 °F 5.2 °F -1.1 °F 40% 30.16 in 10.0 mi South 17.3 mph - N/A   Mostly Cloudy
5:55 PM 19.9 °F 5.2 °F -0.8 °F 40% 30.16 in 10.0 mi South 17.3 mph - N/A   Overcast
6:15 PM 20.1 °F 6.9 °F -0.2 °F 41% 30.17 in 10.0 mi South 13.8 mph - N/A   Overcast
6:35 PM 19.9 °F 7.3 °F 1.6 °F 45% 30.17 in 10.0 mi South 12.7 mph - N/A   Overcast
6:55 PM 20.3 °F 6.6 °F 1.2 °F 44% 30.18 in 10.0 mi South 15.0 mph 18.4 mph N/A   Scattered Clouds
7:15 PM 20.3 °F 7.7 °F 2.5 °F 46% 30.18 in 10.0 mi South 12.7 mph - N/A   Clear
7:35 PM 20.5 °F 8.6 °F 3.2 °F 47% 30.18 in 10.0 mi South 11.5 mph - N/A   Clear
7:55 PM 20.7 °F 8.2 °F 3.0 °F 47% 30.17 in 10.0 mi South 12.7 mph - N/A   Clear
8:15 PM 20.8 °F 9.7 °F 3.6 °F 47% 30.18 in 10.0 mi South 10.4 mph - N/A   Clear
8:35 PM 20.7 °F 10.2 °F 4.8 °F 50% 30.17 in 10.0 mi South 9.2 mph - N/A   Clear
8:55 PM 19.2 °F 7.0 °F 4.1 °F 52% 30.17 in 10.0 mi South 11.5 mph - N/A   Clear
9:15 PM 19.4 °F 6.6 °F 2.3 °F 48% 30.16 in 10.0 mi South 12.7 mph - N/A   Clear
9:35 PM 18.9 °F 6.5 °F 2.7 °F 49% 30.16 in 10.0 mi South 11.5 mph - N/A   Clear
9:55 PM 18.5 °F 6.8 °F 2.3 °F 49% 30.16 in 10.0 mi South 10.4 mph - N/A   Clear
10:20 PM 17.8 °F 5.9 °F 2.7 °F 52% 30.16 in 10.0 mi South 10.4 mph - N/A   Clear
10:35 PM 18.3 °F 6.6 °F 1.9 °F 49% 30.16 in 10.0 mi South 10.4 mph - N/A   Clear
10:55 PM 17.4 °F 6.2 °F 1.6 °F 50% 30.14 in 10.0 mi South 9.2 mph - N/A   Clear
11:15 PM 17.1 °F 5.0 °F 1.4 °F 50% 30.14 in 10.0 mi South 10.4 mph - N/A   Clear
11:35 PM 16.7 °F 3.8 °F 0.9 °F 50% 30.12 in 10.0 mi South 11.5 mph - N/A   Clear
11:55 PM 16.3 °F 4.1 °F 0.3 °F 49% 30.12 in 10.0 mi South 10.4 mph - N/A   Clear